Canberra, Australia

4:49 PM AEDT on December 14, 2019 (GMT +1100)
Canberra

Weather History for YSCB - November, 2019

Change the Weather History Date:

Tuesday, November 19, 2019

  Actual Average Record
Temperature  
Mean Temperature 68 °F -  
Max Temperature 89 °F 77 °F - ()
Min Temperature 46 °F 51 °F - ()
Cooling Degree Days 2    
Growing Degree Days 18 (Base 50)    
Moisture  
Dew Point 31 °F    
Average Humidity 26    
Maximum Humidity 63    
Minimum Humidity 4    
Precipitation  
Precipitation 0.00 in 0.07 in - ()
Sea Level Pressure  
Sea Level Pressure 29.89 in    
Wind  
Wind Speed 9 mph ()    
Max Wind Speed 24 mph    
Max Gust Speed 36 mph    
Visibility 6.2 miles    
Events      
T = Trace of Precipitation, MM = Missing Value Source: Averaged Metar Reports

Daily Weather History Graph

Daily Weather History Graph

Search for Another Location

Airport or City:

Astronomy

Nov. 19, 2019 Rise Set
Actual Time 5:46 AM AEDT 7:50 PM AEDT
Civil Twilight 5:18 AM AEDT 8:19 PM AEDT
Nautical Twilight 4:43 AM AEDT 8:53 PM AEDT
Astronomical Twilight 4:06 AM AEDT 9:31 PM AEDT
Moon 1:05 AM AEDT (11/19) 11:28 AM AEDT (11/19)
Length of Visible Light 15h 00m
Length of Day
14h 04m
Waning Gibbous, 59% of the Moon is Illuminated
Nov 19
Waning Gibbous
Nov 20
Last Quarter
Nov 27
New
Dec 4
First Quarter
Dec 12
Full

Hourly Weather History & Observations

Time (AEDT) Temp. Windchill Dew Point Humidity Pressure Visibility Wind Dir Wind Speed Gust Speed Precip Events Conditions
12:00 AM 64 °F - 34 °F 21% 29.94 in - North 6.9 mph - -   Clear
12:00 AM 64.4 °F - 33.8 °F 32% 29.98 in 6.2 mi North 6.9 mph - N/A   Unknown
12:30 AM 59.0 °F - 33.8 °F 39% 29.98 in 6.2 mi North 8.1 mph - N/A   Unknown
1:00 AM 60 °F - 35 °F 26% 29.93 in - North 5.8 mph - -  
1:00 AM 60.8 °F - 33.8 °F 36% 29.95 in 6.2 mi North 5.8 mph - N/A   Unknown
2:00 AM 58 °F - 34 °F 29% 29.91 in - ENE 1.2 mph - -  
2:00 AM 57.2 °F - 33.8 °F 41% 29.95 in 6.2 mi ENE 1.2 mph - N/A   Unknown
3:00 AM 54 °F - 33 °F 32% 29.90 in - ESE 2.3 mph - -   Clear
3:00 AM 53.6 °F - 33.8 °F 47% 29.92 in 6.2 mi ESE 2.3 mph - N/A   Unknown
3:30 AM 50.0 °F - 35.6 °F 58% 29.92 in 6.2 mi South 3.5 mph - N/A   Unknown
4:00 AM 50 °F - 34 °F 42% 29.90 in - East 3.5 mph - -  
4:00 AM 50.0 °F - 33.8 °F 54% 29.92 in 6.2 mi East 3.5 mph - N/A   Unknown
4:30 AM 50.0 °F - 33.8 °F 54% 29.92 in 6.2 mi SSW 4.6 mph - N/A   Unknown
5:00 AM 49 °F - 34 °F 45% 29.89 in - ESE 5.8 mph - -  
5:00 AM 50.0 °F - 33.8 °F 54% 29.92 in 6.2 mi ESE 5.8 mph - N/A   Unknown
6:00 AM 47 °F - 34 °F 48% 29.90 in - ESE 5.8 mph - -   Clear
6:00 AM 46.4 °F 43.5 °F 33.8 °F 62% 29.92 in 6.2 mi ESE 5.8 mph - N/A   Unknown
6:30 AM 51.8 °F - 35.6 °F 54% 29.95 in 6.2 mi SE 5.8 mph - N/A   Unknown
7:00 AM 57 °F - 36 °F 34% 29.91 in - SE 3.5 mph - -  
7:00 AM 57.2 °F - 35.6 °F 44% 29.95 in 6.2 mi SE 3.5 mph - N/A   Unknown
8:00 AM 67 °F - 36 °F 21% 29.91 in - WNW 3.5 mph - -  
8:00 AM 66.2 °F - 35.6 °F 32% 29.95 in 6.2 mi WNW 3.5 mph - N/A   Unknown
9:00 AM 75 °F - 34 °F 13% 29.91 in - NW 8.1 mph - -   Clear
9:00 AM 75.2 °F - 33.8 °F 22% 29.95 in 6.2 mi NW 8.1 mph - N/A   Unknown
10:00 AM 79 °F - 31 °F 9% 29.89 in - WNW 19.6 mph - -  
10:00 AM 78.8 °F - 30.2 °F 17% 29.92 in 6.2 mi WNW 19.6 mph - N/A   Unknown
11:00 AM 82 °F - 33 °F 9% 29.89 in - NNW 19.6 mph - -  
11:29 AM 82.4 °F - 30.2 °F 15% 29.92 in 6.2 mi NW 17.3 mph 33.4 mph N/A   Unknown
11:30 AM 82.4 °F - 32.0 °F 16% 29.92 in 6.2 mi NW 17.3 mph 33.4 mph N/A   Unknown
12:00 PM 84.2 °F - 30.2 °F 14% 29.92 in 6.2 mi WNW 17.3 mph - N/A   Unknown
12:30 PM 84.2 °F - 28.4 °F 13% 29.89 in 6.2 mi WNW 19.6 mph - N/A   Unknown
12:44 PM 86.0 °F - 28.4 °F 12% 29.89 in 6.2 mi West 17.3 mph 31.1 mph N/A   Unknown
1:00 PM 85 °F - 27 °F 6% 29.86 in - West 19.6 mph - -  
1:15 PM 86.0 °F - 24.8 °F 11% 29.89 in 6.2 mi WNW 20.7 mph 35.7 mph N/A   Unknown
1:30 PM 87.8 °F - 26.6 °F 11% 29.86 in 6.2 mi WNW 23.0 mph - N/A   Unknown
1:43 PM 86.0 °F - 26.6 °F 12% 29.86 in 6.2 mi WNW 21.9 mph 33.4 mph N/A   Unknown
2:00 PM 87 °F - 24 °F 4% 29.83 in - WNW 23.0 mph - -  
2:00 PM 87.8 °F - 23.0 °F 9% 29.86 in 6.2 mi WNW 23.0 mph - N/A   Unknown
2:35 PM 86.0 °F - 28.4 °F 12% 29.86 in 6.2 mi WNW 19.6 mph 31.1 mph N/A   Unknown
2:52 PM 87.8 °F - 26.6 °F 11% 29.83 in 6.2 mi NW 24.2 mph - N/A   Unknown
2:55 PM 87.8 °F - 26.6 °F 11% 29.86 in 6.2 mi West 21.9 mph - N/A   Unknown
3:00 PM 87 °F - 24 °F 4% 29.81 in - NW 21.9 mph - -   Clear
3:00 PM 87.8 °F - 24.8 °F 10% 29.83 in 6.2 mi NW 21.9 mph - N/A   Unknown
3:36 PM 87.8 °F - 24.8 °F 10% 29.83 in 6.2 mi WNW 17.3 mph 29.9 mph N/A   Unknown
4:00 PM 87.8 °F - 26.6 °F 11% 29.83 in 6.2 mi WNW 16.1 mph - N/A   Unknown
5:00 PM 89 °F - 23 °F 4% 29.78 in - West 13.8 mph - -  
5:15 PM 87.8 °F - 23.0 °F 9% 29.80 in 6.2 mi West 17.3 mph 34.5 mph N/A   Unknown
5:30 PM 87.8 °F - 19.4 °F 8% 29.80 in 6.2 mi WNW 16.1 mph - N/A   Unknown
6:00 PM 87 °F - 22 °F 4% 29.79 in - West 17.3 mph - -   Clear
6:00 PM 87.8 °F - 21.2 °F 9% 29.83 in 6.2 mi West 17.3 mph - N/A   Unknown
6:30 PM 86.0 °F - 23.0 °F 10% 29.83 in 6.2 mi WNW 13.8 mph - N/A   Unknown
7:00 PM 85 °F - 20 °F 4% 29.81 in - WNW 13.8 mph - -  
7:00 PM 86.0 °F - 19.4 °F 9% 29.83 in 6.2 mi WNW 13.8 mph - N/A   Unknown
8:00 PM 79 °F - 26 °F 7% 29.85 in - WNW 5.8 mph - -  
8:00 PM 78.8 °F - 24.8 °F 14% 29.89 in 6.2 mi WNW 5.8 mph - N/A   Unknown
8:14 PM 71.6 °F - 39.2 °F 31% 29.89 in 6.2 mi East 17.3 mph - N/A   Unknown
8:30 PM 66.2 °F - 42.8 °F 43% 29.92 in 6.2 mi East 18.4 mph - N/A   Unknown
9:00 PM 63 °F - 43 °F 37% 29.92 in - East 9.2 mph - -   Clear
9:00 PM 62.6 °F - 42.8 °F 48% 29.95 in 6.2 mi East 9.2 mph - N/A   Unknown
10:00 PM 60 °F - 44 °F 45% 29.95 in - East 6.9 mph - -  
10:00 PM 60.8 °F - 44.6 °F 55% 29.98 in 6.2 mi East 6.9 mph - N/A   Unknown
10:30 PM 59.0 °F - 44.6 °F 59% 30.01 in 6.2 mi ESE 10.4 mph - N/A   Unknown
11:00 PM 57.2 °F - 44.6 °F 63% 30.01 in 6.2 mi SE 6.9 mph - N/A   Unknown